Location: Amsterdam
(30.7274°N, 84.4357°W)
Time: 13:57:08
(UTC+00:00)

Transit 2A Rocket - Pass Details

Date: 09 February 2026
Orbit: 583 x 900 km, 66.7° (Epoch: 6 March)

Event Time Altitude Azimuth Distance (km) Brightness Sun altitude
Rises 00:25:30 0° 238° (WSW) 3,430 9.7 -14.6°
Reaches altitude 10° 00:28:24 10° 251° (WSW) 2,528 9.0 -15.2°
Maximum altitude 00:33:09 25° 304° (NW) 1,740 7.4 -16.2°
Drops below altitude 10° 00:38:00 10° 358° (N) 2,577 7.7 -17.2°
Sets 00:41:00 0° 12° (NNE) 3,510 8.2 -17.9°
